DateTimeUTC,F1_A11,F1_S11,BsB_S11,BsG_S11,BsR_S11,BbsB_S11,BbsG_S11,BbsR_S11,BaB_A11,BaG_A11,BaR_A11,Tu_S11,T_S11,Uu_S11,U_S11,P_S11,T1_A11
2021-06-29T12:00:00Z,00000200,20000000,,,,,,,0000.05,0000.17,-000.17,19.4,25.9,08.5,05.7,0660.3,31.2
2021-06-29T12:01:00Z,00000200,20000000,,,,,,,0000.17,-000.27,0000.15,19.4,25.9,08.5,05.7,0660.3,31.2
2021-06-29T12:02:00Z,00000200,20000000,,,,,,,-000.25,-000.38,-000.14,19.4,25.9,08.5,05.7,0660.3,31.2
2021-06-29T12:03:00Z,00000200,60000000,,,,,,,0000.12,-000.02,0000.12,19.4,25.9,08.5,05.7,0660.3,31.2
2021-06-29T12:04:00Z,00000200,40000000,0000.28,0000.24,-000.17,0000.97,0000.08,-000.09,0000.16,0000.37,-000.05,19.5,25.7,08.5,05.8,0661.1,31.2
2021-06-29T12:05:00Z,00000200,00000000,0000.47,-000.07,-000.01,0000.02,0000.27,-000.06,0000.01,-000.14,0000.06,19.5,25.7,08.5,05.8,0661.2,31.2
2021-06-29T12:06:00Z,00000200,00000000,0000.73,0000.11,-000.05,0000.49,0000.01,-000.02,-000.26,0000.06,0000.23,19.5,25.7,08.6,05.9,0661.2,31.2
2021-06-29T12:07:00Z,00000200,00000000,0000.07,-000.18,-000.02,0000.10,0000.36,-000.13,0000.25,-000.28,-000.08,19.5,25.7,08.7,06.0,0661.2,31.2
2021-06-29T12:08:00Z,00000200,00000000,0000.03,0000.21,-000.10,0000.38,0000.30,-000.06,-000.12,0000.31,0000.17,19.5,25.7,08.8,06.0,0661.3,31.2
2021-06-29T12:09:00Z,00000200,00000000,0000.24,0000.11,-000.08,0000.49,0000.15,0000.06,0000.12,0000.30,-000.06,19.5,25.7,08.7,06.0,0661.2,31.2
2021-06-29T12:10:00Z,00000200,00000000,0000.13,0000.21,-000.19,0000.25,0000.24,0000.16,0000.54,0000.04,-000.16,19.5,25.7,08.8,06.0,0661.3,31.2
2021-06-29T12:11:00Z,00000200,00000000,0000.31,-000.08,-000.07,0000.47,0000.02,-000.18,-000.44,-000.07,-000.08,19.5,25.7,08.8,06.0,0661.2,31.2
2021-06-29T12:12:00Z,00000200,00000000,0000.47,0000.28,-000.01,0000.57,0000.41,0000.12,0000.01,0000.33,0000.11,19.5,25.7,08.8,06.0,0661.2,31.2
2021-06-29T12:13:00Z,00000200,00000000,-000.98,-000.01,-000.14,0000.56,0000.07,0000.03,0000.16,-000.21,-000.01,19.5,25.7,08.8,06.1,0661.2,31.2
2021-06-29T12:14:00Z,00000200,00000000,-000.22,-000.00,-000.06,0000.74,0000.04,-000.14,-000.17,0000.02,0000.18,19.5,25.7,08.8,06.0,0661.2,31.2
2021-06-29T12:15:00Z,00000200,00000000,-000.38,0000.24,-000.26,0000.53,0000.23,0000.04,0000.24,0000.21,-000.28,19.5,25.7,09.0,06.2,0661.3,31.2
2021-06-29T12:16:00Z,00000200,00000000,0000.32,0000.42,0000.02,0000.47,0000.50,0000.27,0000.09,0000.02,0000.08,19.5,25.7,09.0,06.2,0661.3,31.2
2021-06-29T12:17:00Z,00000200,00000000,-000.01,0000.34,-000.11,0000.70,-000.00,0000.08,-000.01,-000.47,0000.18,19.5,25.6,09.2,06.4,0661.3,31.2
2021-06-29T12:18:00Z,00000200,00000000,-000.22,0000.41,-000.07,0000.23,0000.20,-000.05,0000.20,0000.35,0000.02,19.5,25.7,09.1,06.3,0661.2,31.2
2021-06-29T12:19:00Z,00000200,00000000,0000.14,0000.16,0000.16,0000.47,0000.29,0000.20,-000.34,-000.21,-000.16,19.5,25.6,09.1,06.3,0661.2,31.2
2021-06-29T12:20:00Z,00000200,00000000,-000.07,0000.08,-000.10,0000.04,0000.40,0000.17,-000.00,-000.22,0000.02,19.5,25.6,09.0,06.2,0661.1,31.2
2021-06-29T12:21:00Z,00000200,00000000,0000.37,0000.05,0000.29,0000.31,0000.21,-000.00,0000.27,0000.30,0000.21,19.5,25.6,09.1,06.3,0661.2,31.2
2021-06-29T12:22:00Z,00000200,00000000,0000.10,-000.07,0000.25,0000.59,0000.24,0000.02,-000.16,-000.01,-000.26,19.5,25.6,09.2,06.3,0661.1,31.2
2021-06-29T12:23:00Z,00000200,00000000,-000.13,-000.07,0000.21,0000.24,0000.12,-000.05,-000.02,-000.01,-000.11,19.5,25.7,09.1,06.2,0661.0,31.2
2021-06-29T12:24:00Z,00000200,00000000,0000.31,0000.08,0000.16,-000.06,0000.43,0000.16,0000.08,0000.30,0000.40,19.5,25.7,09.1,06.3,0661.0,31.2
2021-06-29T12:25:00Z,00000200,00000000,0000.08,0000.39,0000.03,0000.68,0000.48,-000.12,-000.17,-000.45,0000.03,19.5,25.7,09.2,06.3,0661.0,31.2
2021-06-29T12:26:00Z,00000200,00000000,-000.12,-000.06,-000.08,0000.47,0000.04,0000.27,0000.41,0000.22,-000.26,19.5,25.7,09.4,06.5,0661.0,31.2
2021-06-29T12:27:00Z,00000200,00000000,-000.37,-000.06,-000.13,0000.28,0000.27,-000.06,-000.25,0000.11,0000.20,19.5,25.7,09.3,06.4,0660.9,31.2
2021-06-29T12:28:00Z,00000200,00000000,-000.42,0000.17,0000.16,0000.76,0000.27,-000.26,0000.24,-000.03,-000.10,19.5,25.7,09.3,06.4,0660.9,31.2
2021-06-29T12:29:00Z,00000200,00000000,0000.25,-000.05,-000.12,0000.96,0000.31,-000.09,0000.02,-000.12,0000.14,19.5,25.7,09.3,06.4,0660.9,31.2
2021-06-29T12:30:00Z,00000200,00000000,-000.14,0000.10,0000.06,0000.73,-000.14,-000.32,-000.14,0000.37,-000.15,19.5,25.7,09.2,06.4,0660.8,31.2
2021-06-29T12:31:00Z,00000200,00000000,-000.15,-000.15,0000.02,0000.62,0000.01,-000.09,-000.10,-000.59,0000.11,19.6,25.7,09.1,06.3,0660.7,31.2
2021-06-29T12:32:00Z,00000200,00000000,0000.44,-000.01,0000.11,0000.23,0000.27,0000.35,-000.04,0000.24,-000.21,19.6,25.7,09.1,06.3,0660.7,31.2
2021-06-29T12:33:00Z,00000200,00000000,-000.65,-000.14,0000.14,0000.31,0000.01,0000.01,0000.30,0000.48,0000.19,19.5,25.7,09.1,06.3,0660.7,31.2
2021-06-29T12:34:00Z,00000200,00000000,-000.34,0000.09,-000.04,-000.09,0000.28,-000.08,0000.21,-000.14,0000.26,19.6,25.7,09.4,06.5,0660.8,31.2
2021-06-29T12:35:00Z,00000200,00000000,-000.48,-000.11,0000.05,0000.37,0000.27,-000.03,-000.32,-000.34,-000.19,19.6,25.7,09.4,06.5,0660.8,31.2
2021-06-29T12:36:00Z,00000200,00000000,0000.23,0000.10,-000.48,0000.05,-000.06,-000.12,0000.40,0000.42,0000.17,19.5,25.7,09.5,06.6,0660.8,31.2
2021-06-29T12:37:00Z,00000200,00000000,-000.19,-000.01,-000.24,0000.17,0000.01,0000.13,-000.02,0000.14,0000.04,19.6,25.7,09.5,06.6,0660.8,31.2
2021-06-29T12:38:00Z,00000200,00000000,-000.29,0000.18,-000.01,0000.51,0000.11,0000.06,-000.40,-000.58,-000.40,19.6,25.7,09.3,06.4,0660.7,31.2
2021-06-29T12:39:00Z,00000200,00000000,0000.59,0000.14,-000.05,0000.60,0000.16,0000.04,0000.08,0000.13,0000.15,19.6,25.7,09.3,06.4,0660.7,31.2
2021-06-29T12:40:00Z,00000200,00000000,-000.07,-000.16,-000.12,-000.22,0000.20,0000.10,-000.22,0000.22,-000.04,19.6,25.7,09.2,06.4,0660.7,31.3
2021-06-29T12:41:00Z,00000200,00000000,0000.46,-000.40,0000.02,0000.72,0000.12,0000.05,0000.35,0000.04,0000.31,19.6,25.7,09.2,06.4,0660.7,31.2
2021-06-29T12:42:00Z,00000200,00000000,-000.08,-000.04,0000.09,0000.09,0000.35,-000.19,-000.11,-000.05,-000.28,19.6,25.7,09.3,06.4,0660.7,31.2
2021-06-29T12:43:00Z,00000200,00000000,-000.67,-000.16,0000.12,0000.15,0000.16,0000.12,-000.16,-000.12,-000.16,19.6,25.7,09.3,06.4,0660.7,31.2
2021-06-29T12:44:00Z,00000200,00000000,-000.05,-000.10,-000.00,0000.45,0000.39,0000.13,0000.02,-000.04,0000.27,19.6,25.7,09.3,06.4,0660.6,31.2
2021-06-29T12:45:00Z,00000200,00000000,-000.31,-000.03,0000.38,0000.35,-000.06,0000.13,0000.06,0000.28,-000.07,19.6,25.7,09.3,06.4,0660.7,31.2
2021-06-29T12:46:00Z,00000200,00000000,-000.13,-000.16,0000.25,0000.31,0000.38,0000.22,-000.04,-000.21,0000.28,19.6,25.7,09.4,06.4,0660.7,31.3
2021-06-29T12:47:00Z,00000200,00000000,-000.29,0000.24,0000.15,-000.15,0000.29,-000.04,0000.15,0000.06,-000.48,19.6,25.7,09.4,06.5,0660.7,31.3
2021-06-29T12:48:00Z,00000200,00000000,0000.46,-000.03,-000.30,0000.28,0000.01,0000.02,0000.55,0000.50,0000.37,19.6,25.7,09.3,06.4,0660.6,31.2
2021-06-29T12:49:00Z,00000200,00000000,-000.17,0000.30,-000.26,0000.62,0000.48,0000.10,-000.56,-000.72,-000.17,19.6,25.7,09.3,06.4,0660.6,31.2
2021-06-29T12:50:00Z,00000200,00000000,0000.03,-000.33,0000.12,-000.02,0000.27,0000.17,0000.02,0000.24,0000.13,19.6,25.7,09.2,06.4,0660.6,31.2
2021-06-29T12:51:00Z,00000200,00000000,-000.23,0000.03,-000.19,0000.26,0000.46,-000.32,-000.05,-000.00,-000.00,19.6,25.7,09.3,06.4,0660.7,31.2
2021-06-29T12:52:00Z,00000200,00000000,-000.17,-000.12,-000.30,0000.43,0000.22,-000.30,0000.24,0000.15,0000.12,19.6,25.7,09.3,06.4,0660.6,31.2
2021-06-29T12:53:00Z,00000200,00000000,0000.14,0000.01,0000.17,0000.38,0000.16,0000.07,-000.12,-000.09,-000.01,19.6,25.8,09.4,06.5,0660.7,31.2
2021-06-29T12:54:00Z,00000200,00000000,-000.34,0000.05,0000.03,0000.27,-000.18,-000.04,-000.21,-000.43,-000.28,19.7,25.8,09.2,06.3,0660.6,31.3
2021-06-29T12:55:00Z,00000200,00000000,-000.17,0000.02,0000.01,0000.17,0000.32,0000.11,0000.26,0000.45,0000.10,19.7,25.8,09.2,06.3,0660.6,31.2
2021-06-29T12:56:00Z,00000200,00000000,0000.50,-000.25,-000.09,0000.61,0000.02,0000.18,-000.00,-000.04,0000.21,19.7,25.8,09.4,06.5,0660.7,31.2
2021-06-29T12:57:00Z,00000200,40000000,,,,,,,-000.14,-000.18,-000.28,19.7,25.8,09.4,06.5,0660.8,31.3
2021-06-29T12:58:00Z,00000200,60000000,,,,,,,0000.23,0000.29,0000.32,19.5,25.9,09.2,06.2,0659.7,31.2
2021-06-29T12:59:00Z,00000200,20000000,,,,,,,0000.01,0000.29,0000.00,19.5,26.0,09.3,06.3,0659.7,31.3
